Location: Go�ngahuizen
(53.0821°N, 5.8849°E)
Time: 08:35:54
(UTC+00:00)

USA 234 - Pass Details

Date: 09 April 2020
Orbit: 1102 x 1106 km, 123.0° (Epoch: 14 May)

Event Time Altitude Azimuth Distance (km) Brightness Sun altitude
Rises 19:50:41 0° 62° (ENE) 3,927 5.9 -12.4°
Reaches altitude 10° 19:53:48 10° 76° (ENE) 2,966 5.1 -12.8°
Maximum altitude 19:58:50 23° 127° (SE) 2,145 4.2 -13.4°
Drops below altitude 10° 20:03:50 10° 178° (S) 2,956 5.2 -14.1°
Sets 20:06:55 0° 192° (SSW) 3,910 5.9 -14.4°
